Angel Fire, NM

10:58 AM MDT on March 30, 2017 (GMT -0600)
Angel Fire

Weather History for KAXX - January, 2013

Change the Weather History Date:

Saturday, January 5, 2013

  Actual Average (KSKX) Record (KSKX)
Temperature  
Mean Temperature 6 °F -  
Max Temperature 33 °F 40 °F 55 °F (2001)
Min Temperature -21 °F 10 °F -9 °F (2013)
Degree Days  
Heating Degree Days 59    
Moisture  
Dew Point -12 °F    
Average Humidity 74    
Maximum Humidity 85    
Minimum Humidity 25    
Precipitation  
Precipitation 0.00 in - - ()
Sea Level Pressure  
Sea Level Pressure 30.25 in    
Wind  
Wind Speed 1 mph (SSW)    
Max Wind Speed 9 mph    
Max Gust Speed -    
Visibility 10 miles    
Events      
Averages and records for this station are not official NWS values.
T = Trace of Precipitation, MM = Missing Value Source: NWS Daily Summary

Daily Weather History Graph

Daily Weather History Graph

Search for Another Location

Airport or City:

Trip Planner

Search our weather history database for the weather conditions in past years. The results will help you decide how hot, cold, wet, or windy it might be!

Date:

Astronomy

Jan. 05, 2013 Rise Set
Actual Time 7:13 AM MST 5:00 PM MST
Civil Twilight 6:44 AM MST 5:28 PM MST
Nautical Twilight 6:12 AM MST 6:00 PM MST
Astronomical Twilight 5:41 AM MST 6:32 PM MST
Moon 12:28 AM MST (1/5) 11:46 AM MST (1/5)
Length of Visible Light 10h 44m
Length of Day
9h 47m
Last Quarter, 43% of the Moon is Illuminated
Jan 5
Last Quarter
Jan 11
New
Jan 18
First Quarter
Jan 26
Full
Feb 3
Last Quarter

Hourly Weather History & Observations

Time (MST) Temp. Windchill Dew Point Humidity Pressure Visibility Wind Dir Wind Speed Gust Speed Precip Events Conditions
12:15 AM -13.5 °F - -17.9 °F 81% 30.11 in 10.0 mi Calm Calm - N/A   Clear
12:35 AM -14.1 °F - -18.8 °F 79% 30.12 in 10.0 mi Calm Calm - N/A   Clear
12:55 AM -12.6 °F - -17.0 °F 81% 30.11 in 10.0 mi Calm Calm - N/A   Clear
1:15 AM -13.9 °F - -18.0 °F 82% 30.13 in 10.0 mi Calm Calm - N/A   Clear
1:35 AM -9.6 °F -18.8 °F -13.2 °F 84% 30.13 in 10.0 mi North 3.5 mph - N/A   Clear
1:55 AM -13.5 °F - -17.0 °F 85% 30.14 in 10.0 mi Calm Calm - N/A   Clear
2:15 AM -17.0 °F - -21.8 °F 79% 30.15 in 10.0 mi Calm Calm - N/A   Clear
2:35 AM -18.0 °F - -22.7 °F 79% 30.15 in 10.0 mi Calm Calm - N/A   Clear
2:55 AM -17.9 °F -30.7 °F -22.7 °F 78% 30.16 in 10.0 mi SSE 4.6 mph - N/A   Clear
3:15 AM -17.9 °F - -22.7 °F 78% 30.15 in 10.0 mi Calm Calm - N/A   Clear
3:35 AM -15.0 °F - -19.3 °F 81% 30.16 in 10.0 mi Calm Calm - N/A   Clear
3:55 AM -14.1 °F - -18.0 °F 82% 30.17 in 10.0 mi Calm Calm - N/A   Clear
4:15 AM -16.4 °F - -21.5 °F 78% 30.17 in 10.0 mi Calm Calm - N/A   Clear
4:35 AM -18.8 °F - -23.4 °F 79% 30.18 in 10.0 mi Calm Calm - N/A   Clear
4:55 AM -14.4 °F - -18.6 °F 82% 30.18 in 10.0 mi Calm Calm - N/A   Clear
5:15 AM -18.6 °F - -24.0 °F 76% 30.19 in 10.0 mi Calm Calm - N/A   Clear
5:35 AM -19.8 °F - -25.1 °F 77% 30.21 in 10.0 mi Calm Calm - N/A   Clear
5:55 AM -21.3 °F - -26.7 °F 76% 30.22 in 10.0 mi Calm Calm - N/A   Clear
6:15 AM -19.3 °F - -24.5 °F 77% 30.22 in 10.0 mi Calm Calm - N/A   Clear
6:35 AM -17.9 °F - -22.0 °F 81% 30.22 in 10.0 mi Calm Calm - N/A   Clear
6:55 AM -20.0 °F -30.7 °F -25.4 °F 76% 30.22 in 10.0 mi West 3.5 mph - N/A   Clear
7:15 AM -18.8 °F - -23.6 °F 78% 30.22 in 10.0 mi Calm Calm - N/A   Clear
7:35 AM -18.4 °F -31.4 °F -23.6 °F 77% 30.24 in 10.0 mi North 4.6 mph - N/A   Clear
7:55 AM -20.0 °F - -25.1 °F 78% 30.26 in 10.0 mi Calm Calm - N/A   Clear
8:15 AM -19.3 °F - -24.3 °F 78% 30.26 in 10.0 mi Calm Calm - N/A   Clear
8:55 AM -15.7 °F - -20.9 °F 77% 30.26 in 10.0 mi Calm Calm - N/A   Clear
9:15 AM -9.9 °F - -14.6 °F 80% 30.27 in 10.0 mi Calm Calm - N/A   Clear
9:55 AM -10.3 °F - -15.0 °F 80% 30.29 in 10.0 mi Calm Calm - N/A   Clear
10:15 AM -7.8 °F - -12.3 °F 81% 30.28 in 10.0 mi Calm Calm - N/A   Clear
10:35 AM -5.3 °F - -9.6 °F 82% 30.28 in 10.0 mi Calm Calm - N/A   Clear
10:55 AM -4.7 °F - -9.2 °F 81% 30.27 in 10.0 mi Calm Calm - N/A   Clear
11:35 AM 2.8 °F - -2.0 °F 80% 30.25 in 10.0 mi Calm Calm - N/A   Clear
11:55 AM 1.9 °F - -2.4 °F 82% 30.24 in 10.0 mi Calm Calm - N/A   Clear
12:35 PM 9.0 °F - 0.7 °F 69% 30.22 in 10.0 mi Calm Calm - N/A   Clear
1:15 PM 8.4 °F - 2.3 °F 76% 30.22 in 10.0 mi Calm Calm - N/A   Clear
1:35 PM 9.3 °F - 2.7 °F 74% 30.22 in 10.0 mi Calm Calm - N/A   Clear
1:55 PM 12.0 °F - 4.5 °F 72% 30.21 in 10.0 mi Calm Calm - N/A   Clear
2:15 PM 12.6 °F - 5.0 °F 72% 30.21 in 10.0 mi Calm Calm - N/A   Clear
2:35 PM 17.1 °F - 7.0 °F 65% 30.22 in 10.0 mi Calm Calm - N/A   Clear
2:55 PM 20.5 °F - 7.5 °F 57% 30.23 in 10.0 mi Calm Calm - N/A   Clear
3:15 PM 32.4 °F 24.6 °F 2.3 °F 28% 30.23 in 10.0 mi West 9.2 mph - N/A   Clear
3:55 PM 30.2 °F 26.7 °F 4.1 °F 33% 30.25 in 10.0 mi SSW 3.5 mph - N/A   Clear
4:15 PM 33.4 °F 27.3 °F 0.3 °F 25% 30.26 in 10.0 mi West 6.9 mph - N/A   Clear
4:55 PM 16.9 °F - 1.8 °F 52% 30.27 in 10.0 mi Calm Calm - N/A   Clear
5:15 PM 16.5 °F 6.9 °F -0.2 °F 48% 30.28 in 10.0 mi South 6.9 mph - N/A   Clear
5:35 PM 16.3 °F - -0.4 °F 48% 30.28 in 10.0 mi Calm Calm - N/A   Clear
5:55 PM 14.7 °F - -1.1 °F 50% 30.29 in 10.0 mi Calm Calm - N/A   Clear
6:15 PM 8.8 °F 2.2 °F -1.8 °F 62% 30.30 in 10.0 mi NNE 3.5 mph - N/A   Clear
6:55 PM 3.0 °F - -5.1 °F 69% 30.32 in 10.0 mi Calm Calm - N/A   Clear
7:15 PM -2.9 °F - -9.0 °F 75% 30.32 in 10.0 mi Calm Calm - N/A   Clear
7:35 PM -4.9 °F -13.4 °F -10.3 °F 78% 30.32 in 10.0 mi South 3.5 mph - N/A   Clear
7:55 PM -5.1 °F - -10.1 °F 79% 30.33 in 10.0 mi Calm Calm - N/A   Clear
8:15 PM -4.9 °F - -9.2 °F 82% 30.34 in 10.0 mi Calm Calm - N/A   Clear
8:35 PM -8.3 °F - -13.2 °F 79% 30.34 in 10.0 mi Calm Calm - N/A   Clear
8:55 PM -9.2 °F - -14.1 °F 79% 30.35 in 10.0 mi Calm Calm - N/A   Clear
9:15 PM -12.5 °F - -17.0 °F 80% 30.35 in 10.0 mi Calm Calm - N/A   Clear
9:35 PM -6.2 °F -14.9 °F -9.8 °F 84% 30.35 in 10.0 mi East 3.5 mph - N/A   Clear
9:55 PM -12.3 °F - -16.4 °F 82% 30.36 in 10.0 mi Calm Calm - N/A   Clear
10:15 PM -10.5 °F - -14.6 °F 82% 30.36 in 10.0 mi Calm Calm - N/A   Clear
10:35 PM -13.0 °F - -18.0 °F 78% 30.37 in 10.0 mi Calm Calm - N/A   Clear
10:55 PM -11.2 °F - -14.8 °F 84% 30.37 in 10.0 mi Calm Calm - N/A   Clear
11:15 PM -11.2 °F -23.0 °F -15.0 °F 83% 30.37 in 10.0 mi SSE 4.6 mph - N/A   Clear
11:35 PM -13.0 °F - -17.0 °F 82% 30.37 in 10.0 mi Calm Calm - N/A   Clear
11:55 PM -12.1 °F - -16.8 °F 80% 30.36 in 10.0 mi Calm Calm - N/A   Clear